[[{"header":{"parameterUnit":"m.s-1","parameterCategory":1,"la1":30.2991,"la2":30.254,"lo1":-89.0895,"lo2":-89.0444,"dy":0.0017,"dx":0.0017,"nx":28,"ny":28,"refTime":"2023-09-19T03:00:00:Z","depth":0,"parameterNumber":2,"parameterNumberName":"U-component_of_WINDS"},"data":[0,0,0,0,0,0,0,0,0,0,0,0,0,0,0,0,0,0,0,0,0,0,0,0,0,0,0,0,0,0,0,0,0,0,0,0,0,0,0,0,0,0,0,0,0,0,0,0,0,0,0,0,0,0,0,0,0,0,-0.905,-0.9052,0,-0.9296,-0.9299,-0.9302,-0.9464,-0.9465,-0.9466,-0.9467,-0.9725,-0.973,-0.9736,0,0,0,0,0,0,0,0,0,0,0,0,0,-0.8725,-0.873,-0.9049,-0.9052,-0.9055,-0.9296,-0.9299,-0.9303,-0.9464,-0.9465,-0.9467,-0.9468,-0.9723,-0.973,-0.9737,0,0,0,0,0,0,0,0,0,0,0,0,0,-0.8908,-0.8731,-0.9049,-0.9165,-0.9178,-0.9295,-0.9299,-0.9304,-0.9464,-0.9465,-0.9467,-0.9469,-0.972,-0.9729,-0.9738,-0.976,0,0,-0.9764,-0.9768,0,0,0,0,0,0,0,0,-0.8897,-0.892,-0.9145,-0.9157,-0.9172,-0.9351,-0.9279,-0.9457,-0.9463,-0.9355,-0.9467,-0.9469,-0.9599,-0.9618,-0.9661,-0.9772,-0.9783,-0.9765,-0.9771,-0.9774,-0.9777,0,0,0,0,0,0,0,-0.8884,-0.891,-0.9147,-0.9148,-0.9164,-0.9207,-0.9235,-0.9314,-0.9466,-0.9365,-0.9377,-0.9404,-0.9607,-0.9652,-0.9668,-0.9787,-0.9765,-0.9773,-0.9778,-0.9782,-0.9934,-0.9933,0,0,0,0,0,0,-0.8853,-0.8898,-0.9139,-0.9155,-0.9036,-0.9212,-0.9243,-0.9292,-0.9465,-0.9493,-0.9402,-0.9411,-0.9636,-0.9658,-0.9678,-0.9718,-0.9774,-0.9783,-0.9788,-0.9935,-0.9934,-0.9932,0,0,0,0,0,0,-0.8845,-0.8873,-0.913,-0.903,-0.9066,-0.9215,-0.927,-0.9296,-0.9341,-0.9494,-0.9522,-0.942,-0.9639,-0.9666,-0.9739,-0.9729,-0.9787,-0.9795,-0.9937,-0.9935,-0.9933,-0.9797,0,0,0,0,0,0,-0.8835,-0.8869,-0.8877,-0.9029,-0.9071,-0.9184,-0.9269,-0.93,-0.9356,-0.9369,-0.9518,-0.9544,-0.9642,-0.9725,-0.9748,-0.9743,-0.9801,-0.9938,-0.9936,-0.9934,-0.9803,-0.9791,-0.978,0,0,0,0,0,-0.8823,-0.8829,-0.8876,-0.8905,-0.9084,-0.9183,-0.9207,-0.9318,-0.9354,-0.9365,-0.9463,-0.9539,-0.9727,-0.9731,-0.9758,-0.9755,-0.9939,-0.9936,-0.9934,-0.9808,-0.9793,-0.978,0,0,0,0,0,0,-0.8673,-0.8851,-0.8906,-0.8961,-0.9055,-0.921,-0.9227,-0.9298,-0.9386,-0.9394,-0.953,-0.9563,-0.9623,-0.9697,-0.9699,-0.9789,-0.9842,-0.9845,-0.9738,-0.9725,-0.9713,-0.9694,-0.9809,0,0,0,0,0,-0.8646,-0.8709,-0.8863,-0.8897,-0.8941,-0.9075,-0.9123,-0.9201,-0.9305,-0.9346,-0.945,-0.9549,-0.9632,-0.9682,-0.9766,-0.9815,-0.9851,-0.9827,-0.9815,-0.9805,-0.9806,-0.984,-0.9832,-0.9923,-0.9923,-0.9923,0,0,-0.8591,-0.8697,-0.8729,-0.8869,-0.8952,-0.9017,-0.9108,-0.9173,-0.9223,-0.9356,-0.9432,-0.9512,-0.9633,-0.9694,-0.9727,-0.9758,-0.9789,-0.9802,-0.9792,-0.9799,-0.9837,-0.9828,-0.982,-0.9921,-0.9922,-0.9922,0,0,-0.8525,-0.861,-0.8649,-0.873,-0.8854,-0.8944,-0.8953,-0.9098,-0.9156,-0.9234,-0.9336,-0.9399,-0.9537,-0.9619,-0.9679,-0.9648,-0.9722,-0.9672,-0.9612,-0.9644,-0.9637,-0.9631,-0.9622,-0.9617,-0.9672,-0.9672,-0.9671,0,-0.8442,-0.8543,-0.866,-0.872,-0.878,-0.8903,-0.8945,-0.9019,-0.9164,-0.9204,-0.9236,-0.9413,-0.9503,-0.9587,-0.958,-0.9624,-0.9641,-0.9655,-0.9628,-0.9624,-0.962,-0.9613,-0.9609,-0.9665,-0.9666,-0.9666,-0.9667,0,-0.8436,-0.8504,-0.8521,-0.8657,-0.872,-0.877,-0.8898,-0.8947,-0.9021,-0.9107,-0.9188,-0.93,-0.941,-0.9436,-0.9508,-0.9532,-0.9547,-0.9602,-0.9659,-0.9602,-0.9598,-0.9596,-0.9655,-0.9657,-0.9659,-0.9661,0,0,-0.828,-0.8482,-0.8487,-0.8551,-0.8698,-0.8755,-0.8812,-0.8919,-0.896,-0.9056,-0.911,-0.9225,-0.9277,-0.9345,-0.9428,-0.9456,-0.9427,-0.9509,-0.9514,-0.9491,-0.9464,-0.9421,-0.9416,-0.9478,-0.9478,-0.9478,-0.9454,0,-0.8237,-0.8344,-0.8454,-0.8523,-0.859,-0.8709,-0.876,-0.8857,-0.8941,-0.9012,-0.9106,-0.9185,-0.9247,-0.929,-0.9323,-0.9423,-0.9424,-0.9427,-0.9531,-0.9533,-0.9497,-0.9414,-0.9369,-0.9341,-0.9453,-0.9452,-0.9452,0,-0.82,-0.8291,-0.8367,-0.851,-0.8542,-0.8585,-0.8694,-0.8759,-0.8873,-0.8932,-0.9009,-0.9097,-0.9167,-0.9216,-0.9316,-0.9316,-0.9365,-0.9422,-0.9424,-0.9438,-0.9489,-0.9426,-0.9334,-0.933,-0.945,-0.9451,-0.9451,0,-0.8081,-0.8222,-0.8287,-0.8338,-0.8506,-0.8535,-0.8606,-0.8722,-0.878,-0.8875,-0.8915,-0.9017,-0.9074,-0.9152,-0.9268,-0.9292,-0.9356,-0.9414,-0.9409,-0.9406,-0.9417,-0.9415,-0.9332,-0.9447,-0.9447,-0.9447,-0.9447,0,-0.8022,-0.8064,-0.8236,-0.8275,-0.8327,-0.8454,-0.8503,-0.8586,-0.8688,-0.8748,-0.8859,-0.8913,-0.9061,-0.9134,-0.9225,-0.9295,-0.932,-0.9372,-0.9395,-0.9362,-0.9355,-0.9396,-0.9402,-0.9446,-0.9447,-0.9447,-0.9447,0,-0.7897,-0.8013,-0.8092,-0.8245,-0.8285,-0.8316,-0.8449,-0.8494,-0.8585,-0.8659,-0.8685,-0.8828,-0.892,-0.9042,-0.9173,-0.9235,-0.9294,-0.933,-0.9254,-0.9268,-0.9257,-0.9256,-0.9198,-0.9198,-0.9311,-0.931,-0.9308,0,-0.7851,-0.7887,-0.8044,-0.8091,-0.8159,-0.8234,-0.8294,-0.8422,-0.848,-0.8614,-0.8643,-0.8744,-0.8831,-0.8973,-0.909,-0.9191,-0.9232,-0.9205,-0.9248,-0.9214,-0.9234,-0.923,-0.9235,-0.9194,-0.9192,-0.919,-0.9189,0,-0.7759,-0.7816,-0.7897,-0.7999,-0.8067,-0.8154,-0.8246,-0.8279,-0.8427,-0.8487,-0.8582,-0.8649,-0.8783,-0.8882,-0.8999,-0.9077,-0.9158,-0.9175,-0.9179,-0.9145,-0.91,-0.9126,-0.9226,-0.9175,-0.9177,-0.9178,-0.9178,-0.9179,-0.7674,-0.7712,-0.7829,-0.7917,-0.7999,-0.8083,-0.8133,-0.8231,-0.8311,-0.8429,-0.85,-0.8593,-0.871,-0.8876,-0.895,-0.9026,-0.9058,-0.9064,-0.9066,-0.9065,-0.9055,-0.9087,-0.9048,-0.9048,-0.9049,-0.9049,-0.905,0,-0.7589,-0.767,-0.775,-0.7875,-0.7944,-0.8014,-0.8121,-0.8175,-0.8254,-0.8356,-0.8439,-0.855,-0.8647,-0.8773,-0.888,-0.8917,-0.8957,-0.8941,-0.894,-0.8957,-0.902,-0.9005,-0.8907,-0.8907,-0.8907,-0.8907,-0.8907,-0.8907,-0.7552,-0.7621,-0.7691,-0.7803,-0.7886,-0.7976,-0.8031,-0.811,-0.8192,-0.831,-0.8391,-0.8472,-0.8585,-0.8701,-0.8795,-0.883,-0.8865,-0.8837,-0.8883,-0.8939,-0.8952,-0.8964,-0.8952,-0.8843,-0.8843,-0.8815,-0.8814,-0.8814]},{"header":{"parameterUnit":"m.s-1","parameterCategory":1,"la1":30.2991,"la2":30.254,"lo1":-89.0895,"lo2":-89.0444,"dy":0.0017,"dx":0.0017,"nx":28,"ny":28,"refTime":"2023-09-19T03:00:00:Z","depth":0,"parameterNumber":3,"parameterNumberName":"V-component_of_WINDS"},"data":[0,0,0,0,0,0,0,0,0,0,0,0,0,0,0,0,0,0,0,0,0,0,0,0,0,0,0,0,0,0,0,0,0,0,0,0,0,0,0,0,0,0,0,0,0,0,0,0,0,0,0,0,0,0,0,0,0,0,1.6504,1.6502,0,1.6275,1.6272,1.6269,1.6094,1.6093,1.6091,1.609,1.5848,1.5843,1.5838,0,0,0,0,0,0,0,0,0,0,0,0,0,1.6784,1.678,1.6505,1.6502,1.6499,1.6275,1.6272,1.6269,1.6095,1.6093,1.6091,1.6089,1.5849,1.5843,1.5838,0,0,0,0,0,0,0,0,0,0,0,0,0,1.6619,1.6779,1.6505,1.6385,1.6372,1.6276,1.6272,1.6268,1.6095,1.6093,1.609,1.6088,1.5851,1.5844,1.5837,1.5839,0,0,1.5814,1.5811,0,0,0,0,0,0,0,0,1.6629,1.6609,1.6406,1.6393,1.6379,1.6211,1.6281,1.6124,1.6096,1.62,1.609,1.6087,1.597,1.5953,1.5915,1.5828,1.5817,1.5813,1.5809,1.5806,1.5804,0,0,0,0,0,0,0,1.6641,1.6618,1.6413,1.6403,1.6386,1.634,1.6314,1.6251,1.6101,1.6191,1.6178,1.6153,1.5962,1.5922,1.5908,1.5814,1.5814,1.5807,1.5802,1.5799,1.5711,1.5713,0,0,0,0,0,0,1.6672,1.6629,1.6421,1.6406,1.6501,1.6337,1.6308,1.6267,1.6101,1.6074,1.6155,1.6146,1.5936,1.5917,1.5899,1.5887,1.5806,1.5799,1.5794,1.5709,1.5712,1.5714,0,0,0,0,0,0,1.6679,1.6655,1.643,1.6514,1.6482,1.6335,1.629,1.6264,1.6224,1.6075,1.6046,1.6143,1.5933,1.5909,1.5854,1.5876,1.5795,1.5789,1.5707,1.571,1.5713,1.5866,0,0,0,0,0,0,1.6687,1.6658,1.666,1.6515,1.6478,1.6393,1.6292,1.6261,1.6212,1.6198,1.6055,1.6029,1.593,1.5866,1.5847,1.5864,1.5783,1.5704,1.5708,1.5712,1.5858,1.5874,1.5887,0,0,0,0,0,1.6698,1.6712,1.6661,1.6637,1.6477,1.6395,1.6373,1.626,1.6215,1.6213,1.6117,1.6034,1.5878,1.5862,1.5839,1.5854,1.5702,1.5707,1.5712,1.5852,1.5871,1.5887,0,0,0,0,0,0,1.6861,1.6691,1.6633,1.6601,1.6514,1.6365,1.636,1.6284,1.6207,1.6196,1.6057,1.6026,1.5985,1.5914,1.5901,1.5845,1.5779,1.5779,1.5893,1.591,1.5925,1.5941,1.5777,0,0,0,0,0,1.6894,1.6843,1.6696,1.6682,1.6641,1.6509,1.6469,1.6389,1.6292,1.6254,1.6154,1.6061,1.599,1.5946,1.5873,1.5847,1.5811,1.5846,1.5861,1.5873,1.5875,1.5851,1.5864,1.573,1.573,1.573,0,0,1.696,1.686,1.6837,1.6712,1.6635,1.6583,1.6479,1.6429,1.6387,1.6245,1.6187,1.6111,1.5998,1.5957,1.5934,1.5896,1.5904,1.588,1.5891,1.5885,1.5858,1.587,1.5882,1.5733,1.5732,1.5732,0,0,1.7053,1.6975,1.6952,1.6878,1.6763,1.6674,1.667,1.6532,1.6476,1.6416,1.6307,1.6255,1.6137,1.606,1.6005,1.6067,1.5986,1.6047,1.6122,1.6101,1.6112,1.612,1.6139,1.6148,1.6049,1.6049,1.605,0,1.7149,1.7069,1.695,1.6906,1.6852,1.6723,1.6697,1.6629,1.6497,1.6461,1.6422,1.6269,1.6184,1.6121,1.6136,1.6098,1.6084,1.6062,1.612,1.6128,1.6134,1.615,1.6158,1.6057,1.6056,1.6056,1.6055,0,1.719,1.7136,1.7131,1.7007,1.6953,1.6919,1.6792,1.6751,1.6676,1.659,1.6529,1.6422,1.6324,1.6303,1.6229,1.6228,1.6208,1.6147,1.6077,1.6157,1.6169,1.6175,1.6069,1.6066,1.6063,1.6062,0,0,1.738,1.719,1.719,1.7131,1.6994,1.6948,1.6906,1.6811,1.6777,1.6689,1.6647,1.655,1.6491,1.6429,1.6345,1.6327,1.6378,1.6266,1.6261,1.6288,1.6366,1.6412,1.6422,1.6324,1.6325,1.6326,1.6375,0,1.7449,1.7369,1.726,1.7215,1.716,1.7036,1.6998,1.6909,1.6827,1.6767,1.6675,1.6608,1.6537,1.6498,1.6475,1.6377,1.6391,1.6372,1.628,1.6279,1.6311,1.6428,1.6477,1.6529,1.6379,1.638,1.6381,0,1.752,1.7439,1.739,1.7254,1.7227,1.7196,1.7098,1.7044,1.6938,1.6879,1.681,1.6719,1.6664,1.6603,1.6523,1.6513,1.6468,1.6414,1.6413,1.6398,1.6333,1.6414,1.6543,1.655,1.6388,1.6387,1.6387,0,1.7659,1.7538,1.7492,1.7445,1.7287,1.7268,1.72,1.7092,1.7041,1.6955,1.692,1.6829,1.6778,1.6708,1.6593,1.656,1.6524,1.6454,1.6471,1.6474,1.6467,1.6469,1.6588,1.6444,1.6444,1.6444,1.6444,0,1.7747,1.772,1.7552,1.7523,1.7488,1.7362,1.733,1.7251,1.7156,1.7106,1.6993,1.6949,1.6801,1.6738,1.6647,1.6593,1.6572,1.652,1.6496,1.6529,1.6535,1.6496,1.6489,1.6446,1.6445,1.6445,1.6445,0,1.7896,1.7783,1.7723,1.7579,1.7541,1.7522,1.7396,1.7361,1.7273,1.7212,1.719,1.7051,1.6971,1.685,1.6734,1.6672,1.6631,1.6594,1.6668,1.6653,1.6675,1.6674,1.6772,1.6776,1.6634,1.6635,1.6636,0,1.7958,1.7935,1.7787,1.7747,1.7685,1.7622,1.7569,1.7443,1.7392,1.7268,1.7248,1.7159,1.7082,1.6959,1.6845,1.6755,1.6712,1.6752,1.6697,1.673,1.6708,1.671,1.6705,1.6765,1.6767,1.6769,1.677,0,1.8079,1.8024,1.7954,1.7863,1.7804,1.7726,1.7643,1.7616,1.747,1.7419,1.7336,1.7277,1.7157,1.707,1.6963,1.6889,1.6804,1.6789,1.6787,1.6819,1.6862,1.6836,1.67,1.6787,1.6785,1.6784,1.6783,1.6782,1.8184,1.8156,1.8048,1.7972,1.7896,1.782,1.778,1.7687,1.7617,1.7511,1.744,1.7362,1.7252,1.71,1.7031,1.6965,1.6929,1.6928,1.6926,1.6927,1.6938,1.6875,1.6946,1.6945,1.6944,1.6944,1.6943,0,1.8296,1.822,1.8152,1.8039,1.7979,1.7907,1.781,1.7763,1.7696,1.7603,1.7529,1.7432,1.7346,1.7226,1.7129,1.7099,1.7058,1.7078,1.7077,1.7061,1.6977,1.6987,1.7113,1.7113,1.7113,1.7113,1.7113,1.7113,1.8347,1.8295,1.8227,1.8135,1.8058,1.7981,1.7931,1.7859,1.7784,1.7682,1.761,1.7533,1.7427,1.7322,1.7238,1.7205,1.7173,1.7205,1.716,1.7083,1.7068,1.7053,1.7061,1.72,1.72,1.7248,1.7248,1.7249]}]]